DMSP 5D-2 F13 DEB, 40575

Orbit data source: Space-Track

DMSP 5D-2 F13 DEB, 40575 is space debris in SSO originally from a launch on Fri, 24 Mar 1995 UTC launched from the Air Force Western Test Range (AFWTR). Debris objects in space refer to the collection of defunct objects orbiting the Earth. Examples of debris include non-operational satellites, rocket bodies, and fragments generated from explosions, collisions, or faulty payload assembly.

Loading next visibility...
Identifier
40575, 1995-015EJ
Orbit
SSO
Country
Flag of USUS
Related business
Manufacturer
Unknown
Mission
Spacecraft
Bus & Motor
Unknown
Mass
Unknown
Launch date (UTC)
1995-03-24 (31 years ago)
Launch vehicle
Unknown
Launch site
Air Force Western Test Range (AFWTR)
Object type
Payload
Rocket body
Debris
Shape & HBR
Unknown shape, 0.1 m
Radar Cross Section
Small (<0.1 m²)

Expand to show TLE details & history
Last TLE update: 2 days ago

TLE from 2 days ago
0 DMSP 5D-2 F13 DEB
1 40575U 95015EJ  26142.88179512  .00005331  00000-0  12984-2 0  9995
2 40575  98.5903 195.5010 0010161 239.5739 120.4453 14.53129117580809
Epoch: 2026-05-22T21:09Z
TLE epoch observation values (Epoch: 2026-05-22T21:09:47.098Z)
Latitude
0.00003°
Longitude
-2.45152°
Altitude
722.069 km
Speed
7.492 km/s
True Right ascension
13h 02m 00s
True Declination
0° 00' 00"
Sunlit
Object was in full shadow at epoch
Visualization orbit readout
Latitude
Unknown
Longitude
Unknown
Altitude
Unknown
Speed
Unknown
Apparent Right ascension
Unknown
Apparent Declination
Unknown
Sunlit
N/A
Visualization observer readout
Local Sidereal Time
09:38:38
Azimuth
Unknown
Elevation
Unknown
Doppler factor
Unknown
Orbital elements
Apogee altitude
719.76 km
Perigee altitude
705.351 km
Semi-major axis
7,090.693 km
Eccentricity
0.00102
Inclination
98.5903°
RAAN
195.501°
Arg. of periapsis
239.5739°
True anomaly
120.54562°
Mean anomaly
120.4453°
Eccentric anomaly
120.49546°
Mean motion
3.63505 °/min
Orbital period
99.04 mins
BSTAR
0.0012984
Loading maneuver chart data...
Computing Atmospheric mass density...

Documentation

Showing up to 5 results
|